User: anonymous   Login
Location: Caltech
(34.1382°N, 118.1253°W)
Time: 09:30:25
(UTC-07:00)
Language:

DELTA 2 R/B (1) - Orbit

View from above orbital plane
View from above orbital plane
View from above satellite
View from above satellite

Ground track
Ground track

The orbit data is extracted from the following two-line orbital elements,

1 27665U 03005C   17172.88327295 +.00000006 +00000-0 +35914-4 0  9998
2 27665 039.5763 086.3518 0009408 292.8827 125.6162 14.28445998751607
Epoch (UTC): 21 June 2017 21:11:54
Eccentricity: 0.0009408
inclination: 39.5763°
perigee height: 790 km
apogee height: 803 km
right ascension of ascending node: 86.3518°
argument of perigee: 292.8827°
revolutions per day: 14.28445998
mean anomaly at epoch: 125.6162°
orbit number at epoch: 75160

The dashed part of the orbit path shows where the satellite is in the earth's shadow,  

DLR